User: anonymous   Login
Location: Bojarzin Observatory
(39.7980°N, 89.7627°W)
Time: 20:19:28
(UTC-06:00)
Language:

ISS - Orbit

View from above orbital plane
View from above orbital plane
View from above satellite
View from above satellite

Ground track
Ground track

The orbit data is extracted from the following two-line orbital elements,

1 25544U 98067A   14332.78815064  .00017957  00000-0  30418-3 0  4759
2 25544 051.6479 003.4978 0007343 077.3739 091.6922 15.51583358916861
Epoch (UTC): 28 November 2014 18:54:56
Eccentricity: 0.0007343
inclination: 51.6479°
perigee height: 407 km
apogee height: 417 km
right ascension of ascending node: 3.4978°
argument of perigee: 77.3739°
revolutions per day: 15.51583358
mean anomaly at epoch: 91.6922°
orbit number at epoch: 91686

The dashed part of the orbit path shows where the satellite is in the earth's shadow,  

DLR